Location: Great Falls
(47.5000°N, 111.3000°W)
Time: 07:08:00
(UTC-06:00)

ISS - Pass Details

Date: 27 April 2025
Orbit: 416 x 420 km, 51.6° (Epoch: 15 May)

Event Time Altitude Azimuth Distance (km) Brightness Sun altitude
Exits shadow 03:30:31 32° 98° (E) 743 -2.3 -22.2°
Drops below altitude 10° 03:32:40 10° 74° (ENE) 1,496 -0.3 -22.0°
Sets 03:34:49 0° 67° (ENE) 2,363 1.0 -21.8°
